Cheraw, SC

3:41 PM EDT on July 23, 2017 (GMT -0400)
Cheraw

Weather History for KCQW - January, 2013

Change the Weather History Date:

Wednesday, January 30, 2013

  Actual Average (KFLO) Record (KFLO)
Temperature  
Mean Temperature 66 °F -  
Max Temperature 78 °F 57 °F 80 °F (2002)
Min Temperature 53 °F 36 °F 11 °F (1966)
Cooling Degree Days 2    
Growing Degree Days 16 (Base 50)    
Moisture  
Dew Point 61 °F    
Average Humidity 82    
Maximum Humidity 100    
Minimum Humidity 50    
Precipitation  
Precipitation 0.50 in - - ()
Sea Level Pressure  
Sea Level Pressure 29.81 in    
Wind  
Wind Speed 27 mph (South)    
Max Wind Speed 58 mph    
Max Gust Speed 79 mph    
Visibility 10 miles    
Events Rain    
Averages and records for this station are not official NWS values.
T = Trace of Precipitation, MM = Missing Value Source: NWS Daily Summary

Daily Weather History Graph

Daily Weather History Graph

Search for Another Location

Airport or City:

Trip Planner

Search our weather history database for the weather conditions in past years. The results will help you decide how hot, cold, wet, or windy it might be!

Date:

Astronomy

Jan. 30, 2013 Rise Set
Actual Time 7:19 AM EST 5:47 PM EST
Civil Twilight 6:52 AM EST 6:14 PM EST
Nautical Twilight 6:22 AM EST 6:44 PM EST
Astronomical Twilight 5:52 AM EST 7:14 PM EST
Moon 9:31 PM EST (1/30) 8:57 AM EST (1/30)
Length of Visible Light 11h 21m
Length of Day
10h 28m
Waning Gibbous, 88% of the Moon is Illuminated
Jan 30
Waning Gibbous
Feb 3
Last Quarter
Feb 10
New
Feb 17
First Quarter
Feb 25
Full

Hourly Weather History & Observations

Time (EST) Temp. Dew Point Humidity Pressure Visibility Wind Dir Wind Speed Gust Speed Precip Events Conditions
12:15 AM 62.6 °F 62.6 °F 100% 30.08 in 10.0 mi South 17.3 mph 28.8 mph N/A   Mostly Cloudy
12:35 AM 62.6 °F 62.6 °F 100% 30.07 in 10.0 mi South 18.4 mph 28.8 mph N/A   Mostly Cloudy
12:55 AM 62.6 °F 62.6 °F 100% 30.07 in 10.0 mi South 12.7 mph 27.6 mph N/A   Partly Cloudy
1:15 AM 62.6 °F 62.6 °F 100% 30.06 in 10.0 mi South 16.1 mph 20.7 mph N/A   Partly Cloudy
1:35 AM 62.6 °F 62.6 °F 100% 30.06 in 10.0 mi SSW 21.9 mph 28.8 mph N/A   Mostly Cloudy
1:55 AM 64.4 °F 62.6 °F 94% 30.06 in 10.0 mi SSW 13.8 mph 28.8 mph N/A   Overcast
2:15 AM 64.4 °F 62.6 °F 94% 30.06 in 10.0 mi South 17.3 mph 31.1 mph N/A   Overcast
2:35 AM 64.4 °F 62.6 °F 94% 30.05 in 10.0 mi South 12.7 mph 18.4 mph N/A   Overcast
2:55 AM 64.4 °F 62.6 °F 94% 30.04 in 10.0 mi South 18.4 mph 27.6 mph N/A   Overcast
3:15 AM 64.4 °F 62.6 °F 94% 30.03 in 10.0 mi South 19.6 mph 27.6 mph N/A   Overcast
3:35 AM 64.4 °F 62.6 °F 94% 30.02 in 10.0 mi South 24.2 mph 36.8 mph N/A   Overcast
3:55 AM 64.4 °F 62.6 °F 94% 30.01 in 10.0 mi SSW 17.3 mph 25.3 mph N/A   Overcast
4:15 AM 64.4 °F 62.6 °F 94% 30.01 in 10.0 mi South 16.1 mph 29.9 mph N/A   Overcast
4:35 AM 64.4 °F 62.6 °F 94% 30.00 in 10.0 mi South 18.4 mph 34.5 mph N/A   Overcast
4:55 AM 64.4 °F 62.6 °F 94% 30.00 in 10.0 mi South 19.6 mph 32.2 mph N/A   Overcast
5:15 AM 64.4 °F 62.6 °F 94% 30.00 in 10.0 mi South 26.5 mph 34.5 mph N/A   Overcast
5:35 AM 64.4 °F 62.6 °F 94% 29.98 in 10.0 mi South 28.8 mph 39.1 mph N/A   Overcast
5:55 AM 64.4 °F 62.6 °F 94% 29.98 in 10.0 mi South 21.9 mph 36.8 mph N/A   Overcast
6:15 AM 64.4 °F 62.6 °F 94% 29.97 in 10.0 mi South 28.8 mph 40.3 mph N/A   Overcast
6:35 AM 64.4 °F 62.6 °F 94% 29.97 in 10.0 mi South 24.2 mph 42.6 mph N/A   Overcast
6:55 AM 64.4 °F 62.6 °F 94% 29.97 in 10.0 mi South 27.6 mph 41.4 mph N/A   Overcast
7:15 AM 64.4 °F 62.6 °F 94% 29.97 in 10.0 mi South 27.6 mph 41.4 mph N/A   Overcast
7:35 AM 66.2 °F 64.4 °F 94% 29.96 in 10.0 mi South 24.2 mph 47.2 mph N/A   Unknown
8:15 AM 66.2 °F 64.4 °F 94% 29.95 in 10.0 mi South 29.9 mph 42.6 mph N/A   Overcast
8:35 AM 66.2 °F 64.4 °F 94% 29.94 in 10.0 mi South 28.8 mph 41.4 mph N/A   Overcast
8:55 AM 66.2 °F 64.4 °F 94% 29.93 in 10.0 mi South 26.5 mph 48.3 mph N/A   Overcast
9:15 AM 66.2 °F 64.4 °F 94% 29.93 in 10.0 mi South 27.6 mph 56.4 mph N/A   Overcast
9:35 AM 68.0 °F 64.4 °F 88% 29.92 in 10.0 mi South 31.1 mph 48.3 mph N/A   Overcast
9:55 AM 68.0 °F 64.4 °F 88% 29.91 in 10.0 mi South 31.1 mph 52.9 mph N/A   Overcast
10:15 AM 68.0 °F 64.4 °F 88% 29.91 in 10.0 mi South 31.1 mph 46.0 mph N/A   Overcast
10:35 AM 68.0 °F 64.4 °F 88% 29.91 in 10.0 mi South 24.2 mph 46.0 mph N/A   Overcast
10:55 AM 68.0 °F 64.4 °F 88% 29.91 in 10.0 mi South 25.3 mph 44.9 mph N/A   Overcast
11:15 AM 68.0 °F 64.4 °F 88% 29.90 in 10.0 mi South 32.2 mph 43.7 mph N/A   Overcast
11:35 AM 69.8 °F 64.4 °F 83% 29.88 in 10.0 mi South 27.6 mph 51.8 mph N/A   Overcast
11:55 AM 69.8 °F 64.4 °F 83% 29.86 in 10.0 mi South 29.9 mph 47.2 mph N/A   Overcast
12:15 PM 73.4 °F 64.4 °F 73% 29.84 in 10.0 mi South 29.9 mph 56.4 mph N/A   Mostly Cloudy
12:35 PM 73.4 °F 64.4 °F 73% 29.82 in 10.0 mi South 42.6 mph 62.1 mph N/A   Mostly Cloudy
12:55 PM 75.2 °F 62.6 °F 65% 29.81 in 10.0 mi South 39.1 mph 64.4 mph N/A   Mostly Cloudy
1:15 PM 73.4 °F 62.6 °F 69% 29.79 in 10.0 mi SSW 39.1 mph 63.3 mph N/A   Mostly Cloudy
1:35 PM 75.2 °F 60.8 °F 61% 29.77 in 10.0 mi South 49.5 mph 74.8 mph N/A   Mostly Cloudy
1:55 PM 77.0 °F 60.8 °F 57% 29.74 in 10.0 mi South 49.5 mph 70.2 mph N/A   Scattered Clouds
2:15 PM 75.2 °F 59.0 °F 57% 29.73 in 10.0 mi South 57.5 mph 79.4 mph N/A   Mostly Cloudy
2:35 PM 78.8 °F 59.0 °F 51% 29.72 in 10.0 mi South 35.7 mph 72.5 mph N/A   Scattered Clouds
3:35 PM 77.0 °F 57.2 °F 50% 29.70 in - South 27.6 mph 52.9 mph N/A   Unknown
3:55 PM 75.2 °F 57.2 °F 53% 29.68 in 10.0 mi South 43.7 mph 64.4 mph N/A   Mostly Cloudy
4:15 PM 75.2 °F 57.2 °F 53% 29.67 in 10.0 mi South 39.1 mph 69.0 mph N/A   Scattered Clouds
4:35 PM 73.4 °F 57.2 °F 57% 29.67 in 10.0 mi South 40.3 mph 79.4 mph N/A   Partly Cloudy
4:55 PM 73.4 °F 57.2 °F 57% 29.67 in 10.0 mi South 36.8 mph 57.5 mph N/A   Partly Cloudy
5:15 PM 73.4 °F 57.2 °F 57% 29.66 in 10.0 mi South 36.8 mph 52.9 mph N/A   Mostly Cloudy
5:35 PM 71.6 °F 57.2 °F 60% 29.64 in 10.0 mi South 42.6 mph 67.9 mph N/A   Scattered Clouds
5:55 PM 71.6 °F 59.0 °F 64% 29.62 in 10.0 mi South 49.5 mph 64.4 mph N/A   Clear
6:15 PM 71.6 °F 60.8 °F 69% 29.61 in 10.0 mi South 52.9 mph 73.6 mph N/A   Mostly Cloudy
6:35 PM 69.8 °F 60.8 °F 73% 29.60 in 10.0 mi South 42.6 mph 63.3 mph N/A   Scattered Clouds
6:55 PM 69.8 °F 60.8 °F 73% 29.60 in 10.0 mi South 41.4 mph 70.2 mph N/A   Partly Cloudy
7:15 PM 69.8 °F 60.8 °F 73% 29.58 in 10.0 mi South 36.8 mph 59.8 mph N/A   Partly Cloudy
7:35 PM 69.8 °F 60.8 °F 73% 29.57 in 10.0 mi South 40.3 mph 72.5 mph N/A   Partly Cloudy
7:55 PM 69.8 °F 60.8 °F 73% 29.57 in 10.0 mi South 41.4 mph 67.9 mph N/A   Scattered Clouds
8:15 PM 69.8 °F 60.8 °F 73% 29.56 in 10.0 mi South 41.4 mph 71.3 mph N/A   Scattered Clouds
8:35 PM 69.8 °F 60.8 °F 73% 29.56 in 10.0 mi South 43.7 mph 58.7 mph N/A   Partly Cloudy
8:55 PM 69.8 °F 60.8 °F 73% 29.54 in 10.0 mi South 48.3 mph 79.4 mph N/A   Partly Cloudy
9:15 PM 69.8 °F 60.8 °F 73% 29.53 in 10.0 mi South 44.9 mph 70.2 mph N/A   Scattered Clouds
9:35 PM 69.8 °F 62.6 °F 78% 29.51 in 7.0 mi South 44.9 mph 70.2 mph N/A Rain Light Rain
9:55 PM 68.0 °F 62.6 °F 83% 29.48 in 9.0 mi South 44.9 mph 67.9 mph N/A   Mostly Cloudy
10:15 PM 66.2 °F 62.6 °F 88% 29.50 in 3.0 mi SW 41.4 mph 63.3 mph N/A   Mostly Cloudy
10:35 PM 62.6 °F 62.6 °F 100% 29.56 in 2.0 mi WSW 39.1 mph 59.8 mph 0.38 in Rain Heavy Rain
10:55 PM 60.8 °F 59.0 °F 94% 29.58 in 5.0 mi WSW 27.6 mph 51.8 mph 0.46 in Rain Rain
11:15 PM 57.2 °F 55.4 °F 94% 29.60 in 10.0 mi WSW 43.7 mph 62.1 mph N/A   Mostly Cloudy
11:35 PM 55.4 °F 51.8 °F 88% 29.62 in 10.0 mi WSW 36.8 mph 57.5 mph N/A   Light Drizzle
11:55 PM 53.6 °F 48.2 °F 82% 29.63 in 4.0 mi WSW 39.1 mph 59.8 mph 0.04 in   Light Drizzle